Location: Potomac
(46.8816°N, 113.5795°W)
Time: 06:17:14
(UTC+00:00)

CUTE 1.7 + AOD 2 - Pass Details

Date: 04 July 2022
Orbit: 589 x 608 km, 97.7° (Epoch: 09 August)

Event Time Altitude Azimuth Distance (km) Brightness Sun altitude
Rises 10:41:54 0° 24° (NNE) 2,849 ? -9.0°
Reaches altitude 10° 10:44:24 10° 37° (NE) 1,938 ? -8.7°
Maximum altitude 10:47:54 25° 94° (E) 1,200 ? -8.3°
Drops below altitude 10° 10:51:23 10° 151° (SSE) 1,916 ? -7.9°
Sets 10:53:49 0° 164° (SSE) 2,810 ? -7.6°
